FW7253 Weather Reports


time (UTC)temp
C
wind
direction
speed
KPH
gust
KPH
rain 1hr
cm
rain 24hr
cm
rain mn
cm
humidity
%
barometer
mb
20260906095531 17 8 6.4 12.9 0.00 0.28 0.00 52 1017.4
20260906095034 17 319 6.4 14.5 0.00 0.28 0.00 54 1017.3
20260906094550 17 326 3.2 14.5 0.00 0.28 0.00 55 1017.3
20260906094034 17 339 6.4 14.5 0.00 0.28 0.00 53 1017.4
20260906093534 17 349 6.4 16.1 0.00 0.28 0.00 54 1017.4
20260906093046 17 338 6.4 16.1 0.00 0.28 0.00 55 1017.3
20260906092536 17 3 9.7 14.5 0.00 0.28 0.00 54 1017.3
20260906092034 17 313 6.4 12.9 0.00 0.28 0.00 56 1017.3
20260906091551 16 328 6.4 16.1 0.00 0.28 0.00 57 1017.4
20260906091034 16 327 8.0 19.3 0.00 0.28 0.00 56 1017.2
20260906090534 16 330 4.8 19.3 0.00 0.28 0.00 58 1017.2
20260906090049 16 318 8.0 16.1 0.00 0.28 0.00 58 1017.2
20260906085530 16 355 4.8 16.1 0.00 0.46 0.00 60 1017.3
20260906085032 16 317 8.0 16.1 0.00 0.46 0.00 58 1017.3
20260906084546 16 326 4.8 14.5 0.00 0.46 0.00 60 1017.3
20260906084033 15 350 6.4 14.5 0.00 0.46 0.00 61 1017.2
20260906083535 15 325 6.4 14.5 0.00 0.46 0.00 60 1017.2
20260906083054 15 328 6.4 16.1 0.00 0.46 0.00 61 1017.1
20260906082536 15 345 4.8 16.1 0.00 0.46 0.00 62 1017.1
20260906082031 15 311 6.4 24.1 0.00 0.46 0.00 63 1017.1
20260906081555 15 319 9.7 24.1 0.00 0.46 0.00 62 1017.0
20260906081031 15 335 8.0 14.5 0.00 0.46 0.00 63 1017.0
20260906080534 15 319 8.0 12.9 0.00 0.46 0.00 64 1016.9
20260906080048 15 352 8.0 14.5 0.00 0.46 0.00 65 1016.9
20260906075531 15 319 6.4 14.5 0.00 0.64 0.00 65 1016.7
20260906075031 15 340 8.0 16.1 0.00 0.64 0.00 66 1016.7
20260906074550 14 327 6.4 16.1 0.00 0.64 0.00 66 1016.7
20260906074030 14 330 6.4 16.1 0.00 0.64 0.00 66 1016.7
20260906073533 14 322 6.4 14.5 0.00 0.64 0.00 67 1016.8
20260906073048 14 328 6.4 14.5 0.00 0.64 0.00 68 1016.7
20260906072533 13 353 8.0 16.1 0.00 0.64 0.00 67 1016.7
20260906072033 13 325 9.7 16.1 0.00 0.64 0.00 68 1016.6
20260906071554 13 5 8.0 12.9 0.00 0.64 0.00 70 1016.7
20260906071033 13 359 6.4 12.9 0.00 0.64 0.00 70 1016.6
20260906070533 13 325 6.4 12.9 0.00 0.64 0.00 71 1016.4
20260906070046 13 345 6.4 9.7 0.00 0.64 0.00 71 1016.2
20260906065536 13 8 4.8 9.7 0.00 0.81 0.00 71 1016.3
20260906065033 13 8 3.2 9.7 0.00 0.81 0.00 71 1016.3
20260906064555 13 18 3.2 11.3 0.00 0.81 0.00 72 1016.2
20260906064032 13 338 3.2 11.3 0.00 0.81 0.00 72 1016.2
20260906063532 12 346 3.2 8.0 0.00 0.81 0.00 73 1016.2
20260906063047 12 344 3.2 8.0 0.00 0.81 0.00 74 1016.1
20260906062532 12 335 1.6 6.4 0.00 0.81 0.00 73 1016.2
20260906062032 12 8 1.6 8.0 0.00 0.81 0.00 74 1016.1
20260906061556 12 343 1.6 8.0 0.00 0.81 0.00 74 1016.1
20260906061032 12 7 0.0 8.0 0.00 0.81 0.00 74 1016.1
20260906060532 12 113 1.6 8.0 0.00 0.81 0.00 75 1016.0
20260906060133 11 6 3.2 8.0 0.00 0.81 0.00 76 1016.1
20260906055533 11 343 3.2 8.0 0.00 1.02 0.00 78 1016.2
20260906055032 11 4 1.6 12.9 0.00 1.02 0.00 76 1016.0
20260906054550 12 359 1.6 16.1 0.00 1.02 0.00 73 1015.9
20260906054033 12 348 8.0 16.1 0.00 1.02 0.00 71 1015.9
20260906053535 12 309 4.8 11.3 0.00 1.02 0.00 74 1015.8
20260906053048 11 10 3.2 11.3 0.00 1.02 0.00 75 1015.6
20260906052536 11 15 3.2 8.0 0.00 1.02 0.00 76 1015.6
20260906052033 11 0 3.2 8.0 0.00 1.02 0.00 77 1015.5
20260906051554 11 356 3.2 8.0 0.00 1.02 0.00 78 1015.4
20260906051032 10 24 0.0 4.8 0.00 1.02 0.00 79 1015.4
20260906050532 10 37 0.0 4.8 0.00 1.02 0.00 79 1015.3
20260906050109 10 50 0.0 3.2 0.00 1.02 0.00 79 1015.3
20260906045533 10 0 0.0 3.2 0.00 1.04 0.00 79 1015.3
20260906045034 10 0 0.0 3.2 0.00 1.04 0.00 78 1015.3
20260906044556 11 354 0.0 3.2 0.00 1.04 0.00 77 1015.3
20260906044035 11 89 0.0 3.2 0.00 1.04 0.00 76 1015.2
20260906043531 11 98 0.0 12.9 0.00 1.04 0.00 76 1015.1
20260906043046 11 9 1.6 12.9 0.00 1.04 0.00 76 1015.1
20260906042532 11 330 3.2 9.7 0.00 1.04 0.00 77 1015.0
20260906042032 11 307 3.2 9.7 0.00 1.04 0.00 77 1015.1
20260906041546 11 343 1.6 9.7 0.00 1.04 0.00 78 1014.9
20260906041033 11 13 0.0 8.0 0.00 1.04 0.00 78 1015.0
20260906040532 11 20 1.6 8.0 0.00 1.04 0.00 78 1014.9
20260906040050 11 89 0.0 6.4 0.00 1.04 0.00 78 1014.8
20260906035539 11 0 1.6 6.4 0.00 1.04 0.00 77 1014.9
20260906035033 11 0 1.6 4.8 0.00 1.04 0.00 77 1014.7
20260906034556 11 113 1.6 4.8 0.00 1.04 0.00 76 1014.6
20260906034033 11 51 1.6 8.0 0.00 1.04 0.00 76 1014.6
20260906033532 11 68 1.6 8.0 0.00 1.04 0.00 77 1014.5
20260906033045 11 0 0.0 12.9 0.00 1.04 0.00 77 1014.5
20260906032532 11 355 3.2 12.9 0.00 1.04 0.00 78 1014.4
20260906032032 11 4 3.2 6.4 0.00 1.04 0.00 78 1014.4
20260906031609 11 290 0.0 3.2 0.00 1.04 0.00 78 1014.3
20260906031032 11 332 1.6 3.2 0.00 1.04 0.00 78 1014.3
20260906030532 11 314 0.0 3.2 0.00 1.04 0.00 78 1014.2
20260906030047 11 92 0.0 3.2 0.00 1.04 0.00 77 1014.1
20260906025535 11 97 0.0 6.4 0.00 1.04 0.00 77 1014.1
20260906025033 11 51 0.0 6.4 0.00 1.04 0.00 77 1014.2
20260906024554 11 18 0.0 4.8 0.00 1.04 0.00 78 1014.2
20260906024031 11 0 0.0 4.8 0.00 1.04 0.00 78 1014.1
20260906023533 11 39 0.0 3.2 0.00 1.04 0.00 77 1014.1
20260906023105 11 32 0.0 6.4 0.00 1.04 0.00 77 1013.9
20260906022534 11 0 0.0 6.4 0.00 1.04 0.00 78 1013.9
20260906022032 11 117 0.0 3.2 0.00 1.04 0.00 79 1013.9
20260906021548 11 0 0.0 3.2 0.00 1.04 0.00 79 1013.8
20260906021031 11 113 0.0 3.2 0.00 1.04 0.00 78 1013.7
20260906020536 11 45 0.0 3.2 0.00 1.04 0.00 78 1013.7
20260906020059 11 0 0.0 12.9 0.00 1.04 0.00 77 1013.6
20260906015532 11 0 0.0 12.9 0.00 1.04 0.00 76 1013.8
20260906015034 11 339 3.2 9.7 0.00 1.04 0.00 76 1013.7
20260906014544 11 46 0.0 8.0 0.00 1.04 0.00 76 1013.6
20260906014032 11 0 1.6 11.3 0.00 1.04 0.00 76 1013.6
20260906013534 11 49 3.2 11.3 0.00 1.04 0.00 76 1013.7
20260906013048 11 0 3.2 11.3 0.00 1.04 0.00 76 1013.7
20260906012650 12 5 4.8 12.9 0.00 1.04 0.00 75 1013.7
20260906012032 12 57 6.4 14.5 0.00 1.04 0.00 74 1013.6
20260906011547 12 338 6.4 14.5 0.00 1.04 0.00 75 1013.6
20260906011032 12 356 8.0 14.5 0.00 1.04 0.00 75 1013.5
20260906010532 12 334 1.6 8.0 0.00 1.04 0.00 75 1013.4
20260906010059 11 61 4.8 8.0 0.00 1.04 0.00 77 1013.3
20260906005532 11 0 0.0 4.8 0.00 1.04 0.00 79 1013.3
20260906005032 11 0 0.0 4.8 0.00 1.04 0.00 79 1013.1
20260906004556 11 77 0.0 6.4 0.00 1.04 0.00 78 1013.1
20260906004032 11 0 1.6 9.7 0.00 1.04 0.00 77 1013.1
20260906003532 12 15 3.2 9.7 0.00 1.04 0.00 76 1013.1
20260906003058 12 195 1.6 8.0 0.00 1.04 0.00 76 1012.9
20260906002531 12 344 1.6 12.9 0.00 1.04 0.00 76 1012.9
20260906002033 12 63 4.8 12.9 0.00 1.04 0.00 76 1012.8
20260906001554 12 30 3.2 12.9 0.00 1.04 0.00 77 1012.7
20260906001032 11 47 1.6 8.0 0.00 1.04 0.00 78 1012.6
20260906000532 11 19 1.6 8.0 0.00 1.04 0.00 78 1012.5
20260906000105 11 58 0.0 8.0 0.00 1.04 0.00 78 1012.5
20260905235534 12 76 3.2 12.9 0.00 1.04 0.00 77 1012.3
20260905235033 12 355 4.8 14.5 0.00 1.04 0.00 76 1012.4
20260905234554 12 1 4.8 14.5 0.00 1.04 0.00 77 1012.3
20260905234032 11 330 6.4 12.9 0.00 1.04 0.00 78 1012.2
20260905233532 11 28 1.6 9.7 0.00 1.04 0.00 79 1012.2
20260905233102 11 356 1.6 9.7 0.00 1.04 0.00 78 1012.2
20260905232533 11 334 4.8 9.7 0.00 1.04 0.00 79 1012.1
20260905232034 11 20 1.6 6.4 0.00 1.04 0.00 79 1012.1
20260905231605 11 19 1.6 6.4 0.00 1.04 0.00 81 1012.0
20260905231032 11 0 1.6 9.7 0.00 1.04 0.00 82 1011.9
20260905230532 10 54 1.6 9.7 0.00 1.04 0.00 85 1011.9
20260905230049 10 5 1.6 4.8 0.00 1.04 0.00 84 1011.7
20260905225531 11 73 0.0 4.8 0.00 1.04 0.00 82 1011.6
20260905225033 11 40 0.0 3.2 0.00 1.04 0.00 80 1011.7
20260905224547 11 0 0.0 8.0 0.00 1.04 0.00 79 1011.6
20260905224037 12 322 1.6 8.0 0.00 1.04 0.00 79 1011.6
20260905223532 12 342 4.8 8.0 0.00 1.04 0.00 79 1011.5
20260905223052 12 17 3.2 8.0 0.00 1.04 0.00 79 1011.3
20260905222532 11 333 1.6 9.7 0.00 1.04 0.00 80 1011.3
20260905222033 12 346 3.2 9.7 0.00 1.04 0.00 79 1011.3
20260905221601 12 86 1.6 8.0 0.00 1.04 0.00 80 1011.3
20260905221032 11 84 1.6 8.0 0.00 1.04 0.00 81 1011.2
20260905220532 12 28 0.0 8.0 0.00 1.04 0.00 80 1011.2
20260905220056 12 65 1.6 8.0 0.00 1.04 0.00 81 1011.1
20260905215534 12 0 1.6 8.0 0.00 1.04 1.04 80 1011.0
20260905215031 12 30 1.6 8.0 0.00 1.04 1.04 80 1011.0
20260905214546 12 37 3.2 8.0 0.00 1.04 1.04 80 1010.8
20260905214032 12 97 1.6 9.7 0.00 1.04 1.04 80 1010.8
20260905213533 12 334 1.6 9.7 0.00 1.04 1.04 80 1010.7
20260905213053 12 41 3.2 9.7 0.00 1.04 1.04 80 1010.6
20260905212532 12 0 0.0 8.0 0.00 1.04 1.04 79 1010.6
20260905212031 12 18 1.6 8.0 0.00 1.04 1.04 79 1010.5
20260905211549 12 347 4.8 8.0 0.00 1.04 1.04 80 1010.5
20260905211032 12 0 0.0 11.3 0.00 1.04 1.04 80 1010.4
20260905210532 12 45 8.0 11.3 0.00 1.04 1.04 80 1010.3
20260905210104 12 345 3.2 11.3 0.00 1.04 1.04 83 1010.3
20260905205533 12 65 4.8 11.3 0.00 1.04 1.04 84 1010.1
20260905205033 12 18 6.4 9.7 0.00 1.04 1.04 87 1009.9
20260905204552 11 352 1.6 9.7 0.00 1.04 1.04 91 1009.9
20260905204031 11 345 3.2 9.7 0.00 1.04 1.04 93 1009.8
20260905203532 10 5 3.2 6.4 0.00 1.04 1.04 93 1009.6
20260905203047 10 29 1.6 6.4 0.00 1.04 1.04 93 1009.5
20260905202532 9 360 0.0 8.0 0.00 1.04 1.04 93 1009.5
20260905202032 9 0 0.0 8.0 0.00 1.04 1.04 92 1009.4
20260905201556 10 304 1.6 8.0 0.00 1.04 1.04 93 1009.4
20260905201031 10 0 0.0 8.0 0.00 1.04 1.04 93 1009.3
20260905200535 10 0 0.0 3.2 0.00 1.04 1.04 92 1009.2
20260905200055 10 0 0.0 3.2 0.00 1.04 1.04 92 1009.3
20260905195531 10 320 0.0 8.0 0.00 1.04 1.04 92 1009.1
20260905195031 10 0 0.0 8.0 0.00 1.04 1.04 92 1009.1
20260905194553 10 335 3.2 8.0 0.00 1.04 1.04 92 1009.0
20260905194034 10 355 3.2 8.0 0.00 1.04 1.04 92 1009.0
20260905193531 10 0 0.0 4.8 0.00 1.04 1.04 93 1008.9
20260905193050 11 0 0.0 0.0 0.00 1.04 1.04 92 1008.8
20260905192533 11 0 0.0 0.0 0.00 1.04 1.04 92 1008.8
20260905192032 11 0 0.0 0.0 0.00 1.04 1.04 92 1008.7
20260905191554 11 0 0.0 0.0 0.00 1.04 1.04 92 1008.7
20260905191031 11 0 0.0 0.0 0.00 1.04 1.04 91 1008.4
20260905190541 11 0 0.0 0.0 0.00 1.04 1.04 92 1008.4
20260905190056 11 0 0.0 0.0 0.00 1.04 1.04 91 1008.3
20260905185533 11 0 0.0 0.0 0.00 1.04 1.04 91 1008.1
20260905185031 11 0 0.0 0.0 0.00 1.04 1.04 91 1008.2
20260905184552 11 0 0.0 0.0 0.00 1.04 1.04 90 1008.1
20260905184034 11 0 0.0 0.0 0.00 1.04 1.04 91 1008.1
20260905183532 11 0 0.0 0.0 0.00 1.04 1.04 90 1008.0
20260905183047 11 0 0.0 0.0 0.00 1.04 1.04 90 1007.9
20260905182531 11 0 0.0 0.0 0.00 1.04 1.04 90 1007.8
20260905182035 11 0 0.0 0.0 0.00 1.04 1.04 89 1007.7
20260905181545 11 0 0.0 0.0 0.00 1.04 1.04 89 1007.5
20260905181032 12 0 0.0 0.0 0.00 1.04 1.04 89 1007.5
20260905180531 12 0 0.0 0.0 0.00 1.04 1.04 88 1007.4
20260905180109 12 0 0.0 0.0 0.00 1.04 1.04 88 1007.3
20260905175532 12 0 0.0 0.0 0.00 1.04 1.04 88 1007.1
20260905175031 12 0 0.0 0.0 0.00 1.04 1.04 87 1007.1
20260905174547 13 0 0.0 1.6 0.00 1.04 1.04 87 1007.0
20260905174031 13 0 0.0 1.6 0.00 1.04 1.04 87 1007.0
20260905173532 13 299 0.0 1.6 0.00 1.04 1.04 84 1006.9
20260905173108 13 0 0.0 1.6 0.00 1.04 1.04 83 1006.8
20260905172531 14 0 0.0 1.6 0.00 1.04 1.04 81 1006.6
20260905172032 15 0 0.0 1.6 0.00 1.04 1.04 79 1006.5
20260905171556 15 0 0.0 0.0 0.00 1.04 1.04 77 1006.3
20260905171031 16 0 0.0 0.0 0.00 1.04 1.04 76 1006.3
20260905170531 16 0 0.0 1.6 0.00 1.04 1.04 73 1006.1
20260905170049 17 0 0.0 4.8 0.00 1.04 1.04 72 1006.0
20260905165535 17 282 1.6 4.8 0.00 1.04 1.04 71 1005.9
20260905165033 17 272 0.0 0.0 0.00 1.04 1.04 71 1005.8
20260905164545 17 0 0.0 0.0 0.00 1.04 1.04 73 1005.7
20260905164034 17 0 0.0 1.6 0.00 1.04 1.04 71 1005.7
20260905163531 17 0 0.0 4.8 0.00 1.04 1.04 67 1005.5
20260905163054 17 0 0.0 4.8 0.00 1.04 1.04 68 1005.5
20260905162532 17 334 3.2 4.8 0.00 1.04 1.04 69 1005.5
20260905162030 17 0 1.6 4.8 0.00 1.04 1.04 69 1005.4
20260905161548 17 278 0.0 6.4 0.00 1.04 1.04 69 1005.3
20260905161032 17 0 0.0 6.4 0.00 1.04 1.04 71 1005.3
20260905160532 17 299 1.6 8.0 0.00 1.04 1.04 72 1005.2
20260905160055 16 287 4.8 8.0 0.00 1.04 1.04 71 1005.2
20260905155536 16 290 4.8 8.0 0.00 1.04 1.04 71 1005.0
20260905155031 17 290 3.2 6.4 0.00 1.04 1.04 72 1004.9
20260905154550 17 290 0.0 4.8 0.00 1.04 1.04 75 1004.8
20260905154033 16 72 1.6 4.8 0.00 1.04 1.04 73 1004.8
20260905153532 17 231 1.6 4.8 0.00 1.04 1.04 73 1004.8
20260905153053 17 297 1.6 8.0 0.00 1.04 1.04 74 1004.7
20260905152531 16 217 3.2 8.0 0.00 1.04 1.04 74 1004.6
20260905152031 16 264 3.2 8.0 0.00 1.04 1.04 75 1004.6
20260905151550 16 302 3.2 8.0 0.00 1.04 1.04 74 1004.5
20260905151033 17 310 3.2 8.0 0.00 1.04 1.04 76 1004.4
20260905150532 17 278 3.2 9.7 0.00 1.04 1.04 76 1004.3
20260905150055 17 319 1.6 9.7 0.00 1.04 1.04 77 1004.2
20260905145537 16 0 1.6 6.4 0.00 1.04 1.04 79 1004.1
20260905145031 16 302 3.2 6.4 0.00 1.04 1.04 79 1004.0
20260905144555 16 296 3.2 8.0 0.00 1.04 1.04 79 1003.9
20260905144031 16 289 4.8 8.0 0.00 1.04 1.04 78 1003.8
20260905143532 16 311 3.2 6.4 0.00 1.04 1.04 81 1003.9
20260905143052 16 343 3.2 9.7 0.00 1.04 1.04 84 1003.8
20260905142535 15 323 4.8 11.3 0.00 1.04 1.04 82 1003.8
20260905142032 15 326 4.8 11.3 0.00 1.04 1.04 82 1003.8
20260905141548 16 334 4.8 8.0 0.00 1.04 1.04 84 1003.7
20260905141034 16 316 4.8 6.4 0.00 1.04 1.04 84 1003.5
20260905140531 15 23 3.2 6.4 0.00 1.04 1.04 84 1003.6
20260905135531 15 314 0.0 4.8 0.08 1.04 1.04 87 1003.6
20260905135034 14 278 1.6 4.8 0.13 1.04 1.04 88 1003.5
20260905134600 14 334 1.6 4.8 0.18 1.04 1.04 90 1003.7
20260905134033 13 297 1.6 4.8 0.25 1.04 1.04 91 1003.6
20260905133530 13 285 3.2 4.8 0.25 1.04 1.04 92 1003.5
20260905133049 13 306 0.0 3.2 0.25 1.04 1.04 93 1003.5
20260905132531 12 0 0.0 0.0 0.25 1.04 1.04 93 1003.5
20260905132031 12 0 0.0 0.0 0.25 1.04 1.04 93 1003.5
20260905131546 11 0 0.0 3.2 0.23 1.02 1.02 93 1003.6
20260905131033 11 0 0.0 4.8 0.23 1.02 1.02 92 1003.5
20260905130532 11 351 3.2 8.0 0.23 1.02 1.02 92 1003.6
20260905130050 11 345 3.2 11.3 0.20 1.02 1.02 92 1003.5
20260905125531 11 335 4.8 12.9 0.15 0.94 0.94 91 1003.4
20260905125031 11 351 4.8 12.9 0.10 0.91 0.91 90 1003.3
20260905124553 12 314 8.0 12.9 0.05 0.84 0.84 89 1003.3
20260905124034 12 347 6.4 12.9 0.00 0.79 0.79 88 1003.2
20260905123532 13 15 4.8 12.9 0.00 0.79 0.79 87 1003.2
20260905123046 13 274 4.8 11.3 0.00 0.79 0.79 86 1003.1
20260905122531 13 323 1.6 4.8 0.00 0.79 0.79 86 1003.0
20260905122031 13 305 0.0 4.8 0.00 0.79 0.79 85 1002.9
20260905121558 13 285 1.6 4.8 0.00 0.79 0.79 85 1002.8
20260905121031 13 263 1.6 4.8 0.00 0.79 0.79 86 1002.8
20260905120531 14 283 1.6 4.8 0.00 0.79 0.79 85 1002.7
20260905120107 14 0 0.0 1.6 0.00 0.79 0.79 85 1002.6
20260905115532 13 0 0.0 3.2 0.00 0.79 0.79 85 1002.6
20260905115032 14 0 0.0 3.2 0.00 0.79 0.79 84 1002.5
20260905114559 14 218 0.0 3.2 0.00 0.79 0.79 84 1002.5
20260905114031 13 285 1.6 3.2 0.00 0.79 0.79 83 1002.5
20260905113535 14 0 0.0 3.2 0.00 0.79 0.79 83 1002.4
20260905113058 14 0 0.0 0.0 0.00 0.79 0.79 84 1002.3
20260905112531 13 0 0.0 1.6 0.00 0.79 0.79 84 1002.2
20260905112032 14 0 0.0 1.6 0.00 0.79 0.79 86 1002.1
20260905111651 13 113 0.0 3.2 0.00 0.79 0.79 86 1002.1
20260905111031 13 0 0.0 3.2 0.00 0.79 0.79 87 1002.0
20260905110530 13 0 0.0 6.4 0.00 0.79 0.79 87 1002.0
20260905110055 13 0 1.6 6.4 0.00 0.79 0.79 88 1001.9
20260905105532 13 147 0.0 6.4 0.00 0.79 0.79 88 1001.9
20260905105030 13 127 0.0 8.0 0.00 0.79 0.79 87 1001.9
20260905104555 13 118 0.0 8.0 0.00 0.79 0.79 88 1001.8
20260905104032 13 0 1.6 6.4 0.00 0.79 0.79 89 1001.7
20260905103533 14 89 0.0 6.4 0.00 0.79 0.79 90 1001.6
20260905103102 14 212 1.6 4.8 0.00 0.79 0.79 92 1001.6
20260905102530 13 0 0.0 4.8 0.00 0.79 0.79 93 1001.5
20260905102031 13 127 1.6 4.8 0.00 0.79 0.79 92 1001.5
20260905101552 13 165 1.6 4.8 0.00 0.79 0.79 94 1001.5
20260905101031 12 144 1.6 4.8 0.00 0.79 0.79 94 1001.4
20260905100531 12 115 0.0 4.8 0.00 0.79 0.79 94 1001.4
20260905100059 12 0 0.0 4.8 0.00 0.79 0.79 94 1001.4